This is the latest recevied weather packets stored in our database for station/object KA9CBS. If no packets are shown the sender has not sent any weather packets the latest 10 day(s).
| Time | Temp. | Humidity | Pressure | Rain* | Wind** | Luminosity | Snow |
|---|---|---|---|---|---|---|---|
| 1777214144 | 19.44° C | 73% | 1016.4 hPa | 0 mm | - | 544 W/m² | - |
| 1777213839 | 18.89° C | 74% | 1016.1 hPa | 0 mm | - | 538 W/m² | - |
| 1777213534 | 18.89° C | 74% | 1016.3 hPa | 0 mm | - | 459 W/m² | - |
| 1777213231 | 18.89° C | 74% | 1016.2 hPa | 0 mm | - | 406 W/m² | - |
| 1777212927 | 18.89° C | 75% | 1016.3 hPa | 0 mm | - | 360 W/m² | - |
| 1777212626 | 18.33° C | 75% | 1016.4 hPa | 0 mm | - | 296 W/m² | - |
| 1777212323 | 18.33° C | 75% | 1016.3 hPa | 0 mm | - | 344 W/m² | - |
| 1777212020 | 18.33° C | 76% | 1016.4 hPa | 0 mm | - | 302 W/m² | - |
| 1777211715 | 18.33° C | 77% | 1016.4 hPa | 0 mm | - | 237 W/m² | - |
| 1777211409 | 17.78° C | 77% | 1016.6 hPa | 0 mm | - | 294 W/m² | - |
| 1777211104 | 17.78° C | 78% | 1016.5 hPa | 0 mm | - | 267 W/m² | - |
| 1777210801 | 17.22° C | 78% | 1016.3 hPa | 0 mm | - | 242 W/m² | - |
| 1777210499 | 17.22° C | 78% | 1016.6 hPa | 0 mm | - | 237 W/m² | - |
| 1777210197 | 17.22° C | 79% | 1016.4 hPa | 0 mm | - | 222 W/m² | - |
| 1777209893 | 16.67° C | 79% | 1016.5 hPa | 0 mm | - | 204 W/m² | - |
| 1777209588 | 16.67° C | 80% | 1016.4 hPa | 0 mm | - | 192 W/m² | - |
| 1777209284 | 16.67° C | 80% | 1016.5 hPa | 0 mm | - | 173 W/m² | - |
| 1777208982 | 16.11° C | 81% | 1016.3 hPa | 0 mm | - | 162 W/m² | - |
| 1777208677 | 16.11° C | 81% | 1016.3 hPa | 0 mm | - | 145 W/m² | - |
| 1777208373 | 16.11° C | 82% | 1016.3 hPa | 0 mm | - | 129 W/m² | - |
| 1777208070 | 15.56° C | 82% | 1016.2 hPa | 0 mm | - | 78 W/m² | - |
| 1777207766 | 15.56° C | 83% | 1015.9 hPa | 0 mm | - | 66 W/m² | - |
| 1777207461 | 15.56° C | 83% | 1015.9 hPa | 0 mm | - | 62 W/m² | - |
| 1777207161 | 15° C | 84% | 1015.9 hPa | 0 mm | - | 58 W/m² | - |
| 1777206857 | 14.44° C | 86% | 1015.9 hPa | 0 mm | - | 55 W/m² | - |
* Rain latest hour (hover to see other rain measurements)
** Current wind speed in m/s (hover to see current wind gust speed)